EKAII EDBJ-EHBK

Flight info

Callsign EKAII
Flight time 1h 0m
Altitude 9000
Route EFD DCT ERSIL Y221 BEBLA DCT BATEB T841 ERNEP DCT COL DCT NVO
Aircraft SF50/L-BDGRSWY/LB2U2

Departure

Time 2026-05-04 08:24
Airport Jena-Schöngleina Airfield (EDBJ)

Arrival

Time 2026-05-04 09:25
Airport Maastricht Aachen Airport (EHBK)
Time Latitude Longitude Altitude Speed Heading
2026-05-04 07:42 50.91417 11.71612 1231 ft 0 kts 149°
2026-05-04 07:55 50.91412 11.71623 1231 ft 1 kts 103°
2026-05-04 07:55 50.91411 11.71632 1231 ft 1 kts 74°
2026-05-04 07:55 50.91424 11.71663 1231 ft 4 kts 57°
2026-05-04 07:55 50.91439 11.71686 1231 ft 0 kts
2026-05-04 07:56 50.91469 11.71667 1231 ft 8 kts 325°
2026-05-04 07:56 50.91491 11.71589 1231 ft 9 kts 268°
2026-05-04 07:57 50.91491 11.71561 1231 ft 0 kts 268°
2026-05-04 07:58 50.91489 11.71525 1231 ft 9 kts 265°
2026-05-04 07:58 50.91483 11.71402 1229 ft 13 kts 249°
2026-05-04 07:59 50.91400 11.71333 1231 ft 15 kts 197°
2026-05-04 07:59 50.91337 11.71347 1231 ft 11 kts 110°
2026-05-04 07:59 50.91358 11.71448 1231 ft 10 kts 58°
2026-05-04 07:59 50.91398 11.71548 1231 ft 11 kts 57°
2026-05-04 08:00 50.91419 11.71608 1228 ft 0 kts 129°
2026-05-04 08:00 50.91415 11.71614 1231 ft 0 kts 151°
2026-05-04 08:19 50.91487 11.71454 1230 ft 0 kts 269°
2026-05-04 08:24 50.91214 11.71200 1285 ft 108 kts 206°
2026-05-04 08:24 50.90473 11.70721 1567 ft 126 kts 203°
2026-05-04 08:24 50.89677 11.69847 1801 ft 143 kts 239°
2026-05-04 08:24 50.89644 11.68375 2346 ft 145 kts 292°
2026-05-04 08:25 50.90426 11.67235 2752 ft 168 kts 326°
2026-05-04 08:25 50.91216 11.65929 3439 ft 163 kts 299°
2026-05-04 08:25 50.91691 11.64274 4007 ft 166 kts 284°
2026-05-04 08:25 50.91918 11.62492 4709 ft 164 kts 277°
2026-05-04 08:26 50.92091 11.60697 5341 ft 165 kts 277°
2026-05-04 08:27 50.93369 11.47678 9014 ft 188 kts 276°
2026-05-04 08:28 50.93579 11.45456 9028 ft 219 kts 276°
2026-05-04 08:28 50.93824 11.42909 9025 ft 247 kts 277°
2026-05-04 08:28 50.94098 11.40102 9027 ft 267 kts 277°
2026-05-04 08:28 50.94387 11.37101 9030 ft 281 kts 277°
2026-05-04 08:29 50.94684 11.33984 9028 ft 290 kts 277°
2026-05-04 08:29 50.94989 11.30780 9027 ft 297 kts 277°
2026-05-04 08:29 50.95292 11.27617 9023 ft 283 kts 277°
2026-05-04 08:31 50.97195 11.07317 9013 ft 260 kts 277°
2026-05-04 08:33 50.99124 10.87458 9026 ft 265 kts 277°
2026-05-04 08:33 50.99424 10.84570 9027 ft 266 kts 277°
2026-05-04 08:35 51.01506 10.64241 9024 ft 266 kts 277°
2026-05-04 08:35 51.01802 10.61338 9024 ft 266 kts 277°
2026-05-04 08:35 51.02095 10.58440 9024 ft 266 kts 277°
2026-05-04 08:35 51.02385 10.55539 9023 ft 266 kts 277°
2026-05-04 08:37 51.04128 10.38100 9022 ft 266 kts 277°
2026-05-04 08:37 51.04413 10.35225 9021 ft 266 kts 277°
2026-05-04 08:37 51.04697 10.32324 9023 ft 266 kts 277°
2026-05-04 08:38 51.04983 10.29418 9022 ft 265 kts 276°
2026-05-04 08:38 51.05037 10.26507 9027 ft 263 kts 266°
2026-05-04 08:38 51.04983 10.23608 9014 ft 264 kts 268°
2026-05-04 08:40 51.04738 10.03124 9012 ft 265 kts 267°
2026-05-04 08:40 51.04696 10.00237 9011 ft 265 kts 267°
2026-05-04 08:40 51.04656 9.97352 9012 ft 265 kts 268°
2026-05-04 08:41 51.04615 9.94423 9022 ft 265 kts 267°
2026-05-04 08:41 51.04572 9.91487 9016 ft 266 kts 267°
2026-05-04 08:41 51.04528 9.88546 9018 ft 266 kts 267°
2026-05-04 08:41 51.04483 9.85604 9014 ft 265 kts 267°
2026-05-04 08:42 51.04442 9.82985 9018 ft 265 kts 267°
2026-05-04 08:42 51.04397 9.80098 9016 ft 264 kts 267°
2026-05-04 08:42 51.04352 9.77173 9019 ft 265 kts 267°
2026-05-04 08:42 51.04305 9.74250 9017 ft 265 kts 267°
2026-05-04 08:43 51.04256 9.71327 9015 ft 265 kts 267°
2026-05-04 08:43 51.04208 9.68400 9019 ft 265 kts 267°
2026-05-04 08:43 51.04157 9.65467 9015 ft 265 kts 267°
2026-05-04 08:43 51.04100 9.62536 9017 ft 265 kts 266°
2026-05-04 08:44 51.04032 9.59611 9019 ft 265 kts 266°
2026-05-04 08:44 51.03966 9.56679 9019 ft 265 kts 267°
2026-05-04 08:46 51.03502 9.36160 9024 ft 271 kts 266°
2026-05-04 08:46 51.03430 9.33135 9028 ft 276 kts 266°
2026-05-04 08:46 51.03358 9.30066 9026 ft 279 kts 266°
2026-05-04 08:46 51.03283 9.26978 9027 ft 281 kts 266°
2026-05-04 08:47 51.03204 9.23864 9027 ft 282 kts 266°
2026-05-04 08:47 51.03127 9.20755 9029 ft 283 kts 266°
2026-05-04 08:47 51.03050 9.17633 9031 ft 283 kts 266°
2026-05-04 08:47 51.02969 9.14509 9027 ft 283 kts 266°
2026-05-04 08:48 51.02890 9.11390 9028 ft 283 kts 266°
2026-05-04 08:48 51.02809 9.08268 9023 ft 283 kts 266°
2026-05-04 08:48 51.02726 9.05141 9023 ft 283 kts 266°
2026-05-04 08:48 51.02644 9.02013 9022 ft 284 kts 266°
2026-05-04 08:49 51.02560 8.98877 9026 ft 284 kts 266°
2026-05-04 08:50 51.02045 8.80131 9013 ft 284 kts 266°
2026-05-04 08:50 51.01955 8.77000 9013 ft 284 kts 266°
2026-05-04 08:51 51.01863 8.73866 9014 ft 284 kts 266°
2026-05-04 08:51 51.01772 8.70725 9007 ft 285 kts 266°
2026-05-04 08:51 51.01579 8.67611 9012 ft 282 kts 259°
2026-05-04 08:51 51.01218 8.64557 9001 ft 282 kts 259°
2026-05-04 08:52 51.00884 8.61486 9003 ft 282 kts 259°
2026-05-04 08:52 51.00554 8.58420 9004 ft 282 kts 259°
2026-05-04 08:52 51.00217 8.55386 9003 ft 274 kts 259°
2026-05-04 08:52 50.99886 8.52446 9001 ft 268 kts 259°
2026-05-04 08:53 50.99565 8.49556 9001 ft 264 kts 259°
2026-05-04 08:54 50.97351 8.29842 9005 ft 258 kts 259°
2026-05-04 08:55 50.96914 8.27101 9003 ft 256 kts 249°
2026-05-04 08:55 50.96192 8.24511 9004 ft 257 kts 246°
2026-05-04 08:55 50.95491 8.21909 9005 ft 257 kts 247°
2026-05-04 08:55 50.94795 8.19298 9016 ft 257 kts 247°
2026-05-04 08:57 50.89829 8.01056 9021 ft 258 kts 246°
2026-05-04 09:01 50.79793 7.64598 9000 ft 258 kts 246°
2026-05-04 09:01 50.79082 7.61989 8996 ft 257 kts 250°
2026-05-04 09:01 50.78908 7.59187 8987 ft 260 kts 276°
2026-05-04 09:01 50.79296 7.56402 8992 ft 259 kts 283°
2026-05-04 09:02 50.79743 7.53638 8994 ft 259 kts 281°
2026-05-04 09:02 50.80083 7.50840 8992 ft 259 kts 278°
2026-05-04 09:02 50.80362 7.48037 8995 ft 259 kts 277°
2026-05-04 09:02 50.80663 7.45265 8996 ft 260 kts 278°
2026-05-04 09:03 50.80992 7.42451 8994 ft 260 kts 279°
2026-05-04 09:03 50.81315 7.39627 8996 ft 261 kts 278°
2026-05-04 09:03 50.81630 7.36792 8999 ft 262 kts 278°
2026-05-04 09:03 50.81948 7.33952 9001 ft 262 kts 278°
2026-05-04 09:04 50.82266 7.31111 8995 ft 263 kts 278°
2026-05-04 09:04 50.82580 7.28275 8994 ft 262 kts 278°
2026-05-04 09:04 50.82896 7.25441 8998 ft 261 kts 278°
2026-05-04 09:04 50.83213 7.22608 8995 ft 261 kts 278°
2026-05-04 09:05 50.83526 7.19774 8999 ft 261 kts 278°
2026-05-04 09:05 50.83838 7.16943 8995 ft 261 kts 278°
2026-05-04 09:05 50.84153 7.14125 8994 ft 260 kts 278°
2026-05-04 09:05 50.84465 7.11301 8994 ft 260 kts 278°
2026-05-04 09:06 50.84774 7.08473 8993 ft 261 kts 278°
2026-05-04 09:07 50.86826 6.89605 9000 ft 262 kts 277°
2026-05-04 09:08 50.87137 6.86726 8659 ft 273 kts 278°
2026-05-04 09:08 50.87454 6.83783 8263 ft 267 kts 278°
2026-05-04 09:08 50.87768 6.80864 7501 ft 270 kts 278°
2026-05-04 09:08 50.88081 6.77938 6894 ft 268 kts 278°
2026-05-04 09:09 50.88391 6.75032 6304 ft 267 kts 278°
2026-05-04 09:09 50.88699 6.72133 5715 ft 266 kts 278°
2026-05-04 09:09 50.89007 6.69245 5150 ft 265 kts 278°
2026-05-04 09:09 50.89309 6.66409 4631 ft 264 kts 278°
2026-05-04 09:10 50.89608 6.63539 4130 ft 263 kts 278°
2026-05-04 09:10 50.89904 6.60741 4000 ft 250 kts 278°
2026-05-04 09:10 50.90187 6.58075 3992 ft 240 kts 278°
2026-05-04 09:10 50.90455 6.55512 3985 ft 232 kts 278°
2026-05-04 09:11 50.90715 6.53026 3983 ft 225 kts 278°
2026-05-04 09:11 50.90968 6.50604 3981 ft 221 kts 278°
2026-05-04 09:11 50.91217 6.48229 3985 ft 216 kts 278°
2026-05-04 09:11 50.91464 6.45853 3656 ft 228 kts 277°
2026-05-04 09:12 50.91729 6.43240 3024 ft 248 kts 278°
2026-05-04 09:12 50.92010 6.40602 3001 ft 238 kts 278°
2026-05-04 09:14 50.93697 6.24196 2985 ft 204 kts 277°
2026-05-04 09:14 50.93926 6.21991 2986 ft 201 kts 278°
2026-05-04 09:14 50.94147 6.19805 2988 ft 199 kts 277°
2026-05-04 09:14 50.94362 6.17673 2987 ft 198 kts 277°
2026-05-04 09:15 50.94581 6.15523 2984 ft 197 kts 278°
2026-05-04 09:15 50.94797 6.13398 2989 ft 194 kts 277°
2026-05-04 09:15 50.95011 6.11281 2992 ft 194 kts 277°
2026-05-04 09:15 50.95216 6.09242 3006 ft 173 kts 277°
2026-05-04 09:17 51.00466 6.00943 2987 ft 137 kts 332°
2026-05-04 09:18 51.01304 6.00280 2988 ft 136 kts 331°
2026-05-04 09:18 51.02135 5.99523 2991 ft 139 kts 315°
2026-05-04 09:18 51.02445 5.98165 2971 ft 132 kts 260°
2026-05-04 09:18 51.02225 5.96796 2984 ft 125 kts 254°
2026-05-04 09:19 51.02054 5.95539 2888 ft 112 kts 255°
2026-05-04 09:19 51.01875 5.94314 2581 ft 114 kts 253°
2026-05-04 09:19 51.01660 5.93097 2356 ft 114 kts 249°
2026-05-04 09:19 51.01386 5.91930 2149 ft 114 kts 251°
2026-05-04 09:20 51.01149 5.90696 1840 ft 119 kts 260°
2026-05-04 09:20 51.00999 5.89555 2005 ft 102 kts 249°
2026-05-04 09:20 51.00827 5.88447 1613 ft 120 kts 256°
2026-05-04 09:20 51.00589 5.87252 1528 ft 101 kts 246°
2026-05-04 09:21 51.00150 5.86411 1315 ft 107 kts 222°
2026-05-04 09:21 50.99636 5.85642 1224 ft 99 kts 216°
2026-05-04 09:21 50.99080 5.85079 1135 ft 92 kts 216°
2026-05-04 09:21 50.98584 5.84279 1067 ft 111 kts 223°
2026-05-04 09:22 50.97969 5.83403 1106 ft 123 kts 221°
2026-05-04 09:22 50.97225 5.82645 1162 ft 130 kts 205°
2026-05-04 09:22 50.96375 5.82152 1190 ft 128 kts 202°
2026-05-04 09:22 50.95584 5.81498 1189 ft 130 kts 211°
2026-05-04 09:23 50.94824 5.80681 1147 ft 129 kts 215°
2026-05-04 09:23 50.94125 5.79954 1040 ft 114 kts 213°
2026-05-04 09:23 50.93464 5.79284 881 ft 111 kts 214°
2026-05-04 09:23 50.92833 5.78665 741 ft 101 kts 214°
2026-05-04 09:25 50.91454 5.76914 376 ft 8 kts 337°
2026-05-04 09:25 50.91464 5.76909 376 ft 1 kts 346°
2026-05-04 09:26 50.91471 5.76906 376 ft 0 kts 346°